Flag for Norway

Past Weather in Hammerfest, Norway — Yesterday and Last 2 Weeks

Now
41 °F

Scattered showers. Partly sunny.


Feels Like: 33 °F
Forecast: 44 / 39 °F
Wind: 16 mph from Southwest

Location: Hammerfest
Current Time: Sep 26, 2020 at 11:51:23 am
Latest Report: Sep 26, 2020 at 10:50 am
Visibility: N/A
Pressure30.01 "Hg
Humidity: 76%
Dew Point: 34 °F
Location of HammerfestLocation

Past Weather in Hammerfest — Graph

°F

Hammerfest Temperature Yesterday

Maximum temperature yesterday: 50 °F (at 1:20 pm)
Minimum temperature yesterday: 37 °F (at 3:20 am)
Average temperature yesterday: 44 °F

High & Low Weather Summary for the Past Weeks

 TemperatureHumidityPressure
High55 °F (Sep 12, 12:50 pm)100% (Sep 14, 2:50 am)30.18 "Hg (Sep 14, 2:50 am)
Low37 °F (Sep 25, 3:20 am)57% (Sep 23, 10:50 am)28.56 "Hg (Sep 21, 9:50 pm)
Average45 °F81%29.50 "Hg
* Reported Sep 11 10:20 am — Sep 26 10:20 am, Hammerfest. Weather by CustomWeather, © 2020

Note: Actual official high and low records may vary slightly from our data, if they occured in-between our weather recording intervals... More about our weather records

Hammerfest Weather History for the Previous 24 Hours

Scroll right to see more
 ConditionsComfort  
Time TempWeatherWind HumidityBarometerVisibility
10:20 am
Sat, Sep 26
41 °FRain showers. Partly sunny.21 mph76%30.01 "HgN/A
9:50 am41 °FBroken clouds.23 mph76%30.01 "HgN/A
9:20 am39 °FLight rain. Partly sunny.16 mph87%29.98 "HgN/A
8:50 am41 °FLight rain. Partly sunny.12 mph81%29.98 "HgN/A
8:20 am41 °FDrizzle. Mostly cloudy.9 mph81%29.98 "HgN/A
7:50 am41 °FBroken clouds.14 mph81%29.95 "HgN/A
7:20 am41 °FPartly sunny.15 mph81%29.95 "HgN/A
6:50 am41 °FMore clouds than sun.17 mph81%29.92 "HgN/A
6:20 am41 °FPartly cloudy.15 mph76%29.92 "HgN/A
5:50 am43 °FPartly cloudy.15 mph71%29.92 "HgN/A
5:20 am43 °FPartly cloudy.15 mph71%29.89 "HgN/A
4:50 am43 °FPassing clouds.14 mph76%29.89 "HgN/A
4:20 am43 °FSprinkles. Passing clouds.16 mph76%29.89 "HgN/A
3:20 am43 °FPassing clouds.15 mph76%29.86 "HgN/A
2:50 am43 °FScattered showers. Partly cloudy.10 mph81%29.83 "HgN/A
2:20 am43 °FScattered showers. Partly cloudy.10 mph81%29.83 "HgN/A
1:50 am41 °FScattered showers. Partly cloudy.9 mph87%29.80 "HgN/A
1:20 am43 °FPartly cloudy.8 mph81%29.80 "HgN/A
12:50 am43 °FScattered showers. Partly cloudy.8 mph81%29.77 "HgN/A
12:20 am43 °FPartly cloudy.10 mph81%29.74 "HgN/A
11:50 pm
Fri, Sep 25
43 °FScattered showers. Partly cloudy.10 mph81%29.71 "HgN/A
11:20 pm43 °FSprinkles. Partly cloudy.21 mph87%29.68 "HgN/A
10:50 pm45 °FSprinkles. Partly cloudy.16 mph87%29.62 "HgN/A
10:20 pm45 °FSprinkles. Partly cloudy.18 mph93%29.59 "HgN/A
9:50 pm45 °FRain showers. Passing clouds.31 mph87%29.53 "HgN/A
9:20 pm46 °FSprinkles. Partly cloudy.28 mph82%29.50 "HgN/A
8:50 pm46 °FSprinkles. Partly cloudy.26 mph82%29.47 "HgN/A
8:20 pm46 °FScattered showers. Partly cloudy.22 mph82%29.45 "HgN/A
7:50 pm46 °FSprinkles. Partly cloudy.23 mph82%29.45 "HgN/A
7:20 pm46 °FScattered showers. Partly cloudy.22 mph82%29.42 "HgN/A
6:50 pm46 °FScattered showers. Partly cloudy.17 mph82%29.39 "HgN/A
6:20 pm46 °FScattered showers. Partly cloudy.14 mph87%29.36 "HgN/A
5:50 pm46 °FBroken clouds.13 mph87%29.33 "HgN/A
5:20 pm46 °FSprinkles. Broken clouds.14 mph87%29.33 "HgN/A
4:50 pm46 °FSprinkles. Broken clouds.7 mph87%29.30 "HgN/A
4:20 pm48 °FScattered showers. Broken clouds.8 mph82%29.27 "HgN/A
3:20 pm50 °FPartly sunny.3 mph76%29.27 "HgN/A
2:50 pm48 °FScattered clouds.2 mph82%29.27 "HgN/A
2:20 pm50 °FPassing clouds.6 mph76%29.27 "HgN/A
1:50 pm50 °FPassing clouds.7 mph76%29.27 "HgN/A
1:20 pm50 °FPassing clouds.3 mph76%29.27 "HgN/A
12:50 pm48 °FPassing clouds.3 mph76%29.30 "HgN/A
12:20 pm48 °FPassing clouds.3 mph76%29.30 "HgN/A
11:50 am46 °FPartly sunny.5 mph82%29.33 "HgN/A
11:20 am45 °FPartly sunny.2 mph81%29.33 "HgN/A
Weather by CustomWeather, © 2020

See weather overview